Date,TemperatureHighF,TemperatureAvgF,TemperatureLowF,DewpointHighF,DewpointAvgF,DewpointLowF,HumidityHigh,HumidityAvg,HumidityLow,PressureMaxIn,PressureMinIn,WindSpeedMaxMPH,WindSpeedAvgMPH,GustSpeedMaxMPH,PrecipitationSumIn
2014-1-1,52.3,44.2,35.5,41.9,36.3,31.2,86,75,52,30.42,30.14,7,0,11,0.03
2014-1-2,58.5,50.5,45.8,55.6,47.1,41.5,90,88,84,30.14,29.56,12,1,25,0.93
2014-1-3,51.6,36.2,26.9,48.5,20.6,11.4,89,54,34,30.46,29.60,20,4,29,0.00
2014-1-4,48.8,37.2,25.0,41.6,27.4,12.0,85,68,52,30.50,30.23,10,1,14,0.00
2014-1-5,65.2,56.9,41.2,61.6,53.2,36.9,90,88,84,30.23,29.85,4,0,13,0.11
2014-1-6,65.5,54.4,32.1,62.4,45.8,10.8,90,74,40,30.14,29.70,18,3,26,0.06
2014-1-7,31.8,23.9,16.9,12.1,-0.0,-7.7,62,36,22,30.54,30.14,17,2,22,0.00
2014-1-8,41.9,28.5,19.4,20.1,13.6,3.1,71,56,24,30.64,30.51,7,0,8,0.00
2014-1-9,53.0,39.7,27.5,42.7,29.1,19.3,74,66,53,30.55,30.43,10,0,11,0.00
2014-1-10,74.5,61.7,48.8,62.5,54.7,42.5,88,78,62,30.43,30.10,10,0,11,0.03
2014-1-11,73.9,66.0,59.3,68.3,61.9,54.9,90,87,76,30.10,29.65,34,3,34,0.57
2014-1-12,60.9,52.3,39.3,56.2,38.6,29.3,89,62,31,30.20,29.70,13,2,18,0.01
2014-1-13,66.0,49.3,35.0,49.4,40.9,30.9,89,74,47,30.23,29.99,4,0,6,0.01
2014-1-14,61.9,55.0,43.2,58.9,51.4,39.6,90,88,85,30.00,29.76,13,1,22,0.37
2014-1-15,60.0,46.6,35.2,50.1,39.8,32.0,93,79,51,29.99,29.85,7,0,14,0.01
2014-1-16,45.2,39.9,30.5,41.3,33.4,26.0,86,78,66,30.08,29.84,12,2,19,0.00
2014-1-17,58.5,44.3,29.0,46.3,32.9,23.7,87,67,32,30.11,29.85,8,1,17,0.01
2014-1-18,54.6,39.0,27.4,47.2,22.6,14.7,81,53,32,30.09,29.84,20,3,31,0.31
2014-1-19,57.1,41.3,27.4,33.0,27.5,19.6,79,61,36,30.07,29.92,12,1,22,0.00
2014-1-20,65.3,49.2,37.6,40.8,32.7,23.0,82,57,21,29.98,29.82,12,1,20,0.00
2014-1-21,65.0,51.9,36.8,45.9,37.9,30.3,79,61,32,29.86,29.48,16,2,24,0.01
2014-1-22,39.6,31.6,23.8,30.1,19.1,12.6,77,61,35,30.13,29.73,16,2,25,0.00
2014-1-23,43.3,30.7,21.2,21.2,16.5,11.0,82,59,29,30.34,30.12,8,1,16,0.00
2014-1-24,30.7,24.4,15.0,21.3,2.0,-5.8,68,39,21,30.58,30.33,20,3,22,0.00
2014-1-25,48.1,33.2,13.7,33.4,18.6,6.0,78,57,36,30.35,29.71,16,2,25,0.00
2014-1-26,53.2,41.9,29.5,36.3,25.2,18.7,78,53,30,30.03,29.88,8,0,16,0.00
2014-1-27,67.7,53.2,43.1,46.5,38.1,33.2,83,59,29,29.97,29.81,13,1,19,0.00
2014-1-28,51.5,32.3,23.5,45.9,21.8,12.6,85,66,42,30.26,29.98,16,4,23,0.00
2014-1-29,26.8,23.7,19.3,20.1,17.0,14.3,86,76,66,30.37,30.08,13,3,24,0.00
2014-1-30,33.9,28.4,23.0,28.7,19.1,11.6,85,68,57,30.39,30.19,12,1,16,0.02
2014-1-31,56.0,39.4,31.4,41.0,32.4,26.5,88,77,50,30.24,30.14,6,0,11,0.65
2014-2-1,53.8,41.7,30.1,43.6,33.4,23.1,88,75,31,30.24,30.10,7,0,12,0.09
2014-2-2,72.0,54.3,43.6,55.8,46.3,39.9,90,76,46,30.14,30.05,13,0,17,0.00
2014-2-3,71.7,60.4,47.7,65.6,54.5,40.0,90,81,70,30.20,29.93,16,2,29,0.00
2014-2-4,47.6,43.1,40.4,42.0,38.3,35.1,89,83,74,30.33,30.05,12,2,18,0.14
2014-2-5,67.4,55.6,43.9,64.0,52.1,40.7,93,88,82,30.05,29.80,17,2,28,0.21
2014-2-6,51.2,43.3,37.8,46.8,32.7,28.5,85,66,53,30.35,30.00,12,2,19,0.00
2014-2-7,50.5,39.3,31.5,35.9,31.7,28.1,92,75,53,30.35,30.23,12,1,12,0.05
2014-2-8,47.3,38.6,33.4,39.9,33.4,28.8,88,81,67,30.27,30.09,8,1,16,0.41
2014-2-9,55.7,41.2,30.4,42.4,34.8,26.5,89,79,54,30.20,30.01,6,0,11,0.01
2014-2-10,55.6,45.9,39.9,42.2,37.0,29.8,86,72,48,30.21,30.01,11,2,18,0.00
2014-2-11,39.9,32.1,27.7,31.4,28.1,24.1,88,85,68,30.37,30.17,13,2,18,0.71
2014-2-12,38.4,31.7,27.6,35.7,28.3,23.7,90,87,85,30.35,29.65,13,0,13,0.67
2014-2-13,38.6,36.4,34.8,35.3,33.0,31.3,90,87,82,29.73,29.47,18,4,30,0.29
2014-2-14,60.6,45.8,33.6,41.0,34.6,29.6,86,67,36,29.87,29.73,12,2,16,0.00
2014-2-15,53.3,47.7,35.1,46.6,34.5,17.5,86,62,35,30.04,29.53,28,4,29,0.13
2014-2-16,55.6,40.1,28.8,35.7,25.6,15.9,77,58,30,30.16,30.04,6,0,8,0.00
2014-2-17,47.0,40.2,34.8,31.7,29.4,25.9,84,66,52,30.36,30.14,13,2,18,0.00
2014-2-18,70.2,51.1,37.1,46.3,40.2,28.9,86,69,34,30.23,30.12,12,1,17,0.00
2014-2-19,76.7,60.9,44.2,57.0,47.7,39.2,90,65,42,30.13,29.93,24,2,26,0.00
2014-2-20,76.3,62.0,53.5,63.5,51.8,43.4,88,70,51,30.21,30.09,7,0,19,0.00
2014-2-21,75.0,64.6,57.1,65.8,59.6,53.0,89,84,72,30.09,29.83,20,1,31,0.14
2014-2-22,66.4,53.9,44.2,53.3,40.0,28.1,88,64,24,30.17,30.01,12,1,14,0.01
2014-2-23,66.2,51.9,39.9,45.8,40.7,35.9,88,68,38,30.11,29.91,5,0,6,0.00
2014-2-24,66.2,54.5,42.4,50.0,43.7,35.7,86,69,34,30.12,29.88,12,1,16,0.01
2014-2-25,73.2,52.7,39.8,51.9,40.5,31.7,85,65,40,30.10,29.85,18,1,22,0.00
2014-2-26,43.8,40.5,37.1,37.5,34.0,29.8,87,78,61,29.96,29.77,7,1,14,0.24
2014-2-27,58.5,43.1,31.5,36.6,32.9,28.4,89,71,32,29.96,29.77,14,1,18,0.01
2014-2-28,50.9,40.7,31.6,33.8,27.3,19.8,85,59,43,30.26,29.95,18,3,18,0.00
2014-3-1,55.7,44.4,33.8,42.2,34.0,23.1,78,67,53,30.31,30.20,12,1,14,0.00
2014-3-2,73.1,55.4,41.6,48.1,41.2,34.7,83,62,26,30.23,29.97,6,0,17,0.00
2014-3-3,73.3,53.2,30.2,54.5,42.3,23.5,83,68,45,30.18,29.82,18,4,26,0.01
2014-3-4,33.6,29.5,24.3,27.0,22.7,16.9,78,75,72,30.28,30.17,16,4,23,0.00
2014-3-5,39.8,36.5,32.9,36.2,31.9,26.8,88,83,77,30.22,30.11,8,2,16,0.12
2014-3-6,45.7,38.9,33.1,42.6,34.4,27.6,93,84,75,30.25,29.83,22,5,31,1.05
2014-3-7,53.2,45.0,38.3,48.3,41.1,33.9,89,86,79,29.91,29.68,25,7,31,1.37
2014-3-8,68.1,50.3,35.1,46.8,38.8,30.5,84,67,33,30.09,29.91,12,1,17,0.01
2014-3-9,71.7,57.7,48.3,45.8,43.4,39.9,82,62,32,30.07,29.99,14,1,16,0.00
2014-3-10,77.2,57.2,42.4,50.2,39.7,23.6,89,59,14,30.02,29.82,10,1,14,0.00
2014-3-11,78.8,61.4,47.9,51.0,46.3,41.0,83,60,30,29.84,29.70,13,1,17,0.00
2014-3-12,74.7,64.8,57.5,58.4,53.9,42.8,83,68,54,29.73,29.36,19,3,30,0.04
2014-3-13,57.0,45.4,32.0,41.4,17.4,4.7,57,35,15,30.24,29.55,22,5,29,0.00
2014-3-14,61.3,43.7,27.1,37.4,25.3,17.7,79,53,20,30.37,30.15,11,0,14,0.00
2014-3-15,75.3,61.0,45.9,47.2,40.6,31.1,85,52,20,30.15,29.95,17,3,26,0.00
2014-3-16,56.8,51.9,48.1,50.6,45.7,39.1,89,79,66,30.05,29.76,11,1,18,0.69
2014-3-17,52.9,42.0,38.7,49.7,39.0,35.7,89,89,88,29.90,29.72,11,3,17,0.48
2014-3-18,49.2,40.5,36.5,41.4,36.6,33.6,89,86,73,30.08,29.80,20,5,24,0.05
2014-3-19,58.3,47.9,41.6,50.2,43.4,38.5,90,85,73,30.13,29.99,11,2,17,0.04
2014-3-20,71.6,55.7,44.5,50.8,45.7,40.3,89,71,38,30.03,29.93,11,1,19,0.00
2014-3-21,67.3,54.2,43.7,44.7,35.4,25.2,85,54,21,30.16,30.01,11,1,14,0.00
2014-3-22,77.2,61.4,46.5,61.8,50.3,40.2,88,70,38,30.11,29.95,11,1,20,0.01
2014-3-23,67.4,57.4,44.0,60.0,51.4,37.6,89,81,62,30.10,29.86,17,1,25,0.02
2014-3-24,52.9,43.4,35.9,37.9,29.1,22.4,86,60,32,30.26,30.10,13,2,24,0.00
2014-3-25,56.1,47.0,40.4,50.2,39.5,29.8,88,76,58,30.12,29.68,18,2,25,0.45
2014-3-26,52.0,41.1,32.8,31.6,21.7,12.4,76,50,22,30.34,29.90,22,4,24,0.00
2014-3-27,58.7,43.7,27.3,39.7,29.2,22.2,82,60,32,30.49,30.33,8,0,16,0.00
2014-3-28,75.1,59.7,44.4,59.6,52.9,38.7,89,79,54,30.34,30.13,8,0,17,0.45
2014-3-29,66.6,63.2,60.4,63.5,59.9,56.8,90,89,86,30.13,29.63,11,1,17,1.19
2014-3-30,65.2,54.3,49.1,60.9,40.7,30.3,86,61,44,29.94,29.59,16,4,24,0.01
2014-3-31,73.5,56.6,43.8,37.8,29.3,22.3,67,39,15,30.10,29.94,14,2,20,0.00
2014-4-1,80.7,60.5,41.6,46.1,38.8,24.5,87,51,13,30.16,30.03,13,1,17,0.00
2014-4-2,88.6,68.5,53.4,50.3,44.1,31.0,69,46,13,30.12,30.02,13,1,19,0.00
2014-4-3,87.8,71.5,62.3,58.3,51.6,47.8,71,51,32,30.08,29.95,14,2,19,0.00
2014-4-4,85.2,72.5,64.3,60.3,57.6,52.0,79,62,37,29.96,29.83,18,4,22,0.00
2014-4-5,84.5,72.4,61.3,57.5,51.8,35.8,78,53,18,30.01,29.86,17,3,20,0.00
2014-4-6,61.8,57.3,53.0,53.6,42.9,35.8,78,59,48,30.13,30.01,14,3,19,0.00
2014-4-7,77.1,67.4,56.4,69.1,60.7,47.5,88,79,66,30.04,29.77,22,2,22,0.18
2014-4-8,75.6,67.6,61.9,64.6,61.6,54.6,89,81,62,29.77,29.56,11,1,17,0.29
2014-4-9,69.7,60.5,51.0,54.9,46.5,38.3,85,63,33,30.10,29.60,14,2,20,0.04
2014-4-10,75.8,61.3,45.8,54.0,45.4,35.8,88,61,25,30.28,30.10,7,0,13,0.00
2014-4-11,81.6,67.5,54.8,54.4,49.9,43.0,84,57,26,30.27,30.13,18,2,25,0.00
2014-4-12,83.3,67.3,53.9,57.8,53.0,48.6,88,64,33,30.24,30.15,7,0,8,0.00
2014-4-13,82.4,68.2,54.9,63.5,56.5,50.8,90,69,43,30.24,30.14,6,0,14,0.00
2014-4-14,80.6,69.4,59.2,64.5,60.7,54.2,88,75,54,30.15,29.90,7,0,14,0.03
2014-4-15,75.7,68.0,48.2,66.0,62.4,43.9,89,83,66,29.90,29.66,17,2,25,0.64
2014-4-16,57.3,48.2,38.7,43.8,32.9,25.9,86,58,33,30.42,29.88,20,5,25,0.00
2014-4-17,68.9,52.5,37.9,49.8,39.8,26.8,77,63,45,30.47,30.35,17,2,19,0.00
2014-4-18,63.8,53.4,43.7,53.5,45.3,38.3,88,75,53,30.40,30.14,11,2,19,0.48
2014-4-19,57.5,53.5,50.1,54.6,50.3,47.0,90,89,85,30.14,29.96,18,5,28,2.78
2014-4-20,58.1,54.2,50.5,53.9,49.4,43.6,89,84,68,30.10,30.00,30,8,38,0.09
2014-4-21,74.9,61.0,50.6,58.1,50.2,42.5,82,68,51,30.10,29.92,16,4,22,0.00
2014-4-22,84.4,66.6,50.4,57.8,50.5,42.8,89,62,24,29.93,29.67,13,1,18,0.00
2014-4-23,82.2,69.0,53.2,57.7,44.4,25.8,86,49,13,29.94,29.68,14,2,25,0.00
2014-4-24,70.8,59.2,48.3,49.7,41.8,35.0,80,55,31,30.12,29.94,8,1,14,0.00
2014-4-25,80.3,68.2,55.3,67.0,59.5,49.5,90,75,55,30.02,29.72,18,1,23,0.06
2014-4-26,78.4,66.7,57.4,60.8,48.9,38.0,86,58,25,30.02,29.82,10,1,18,0.01
2014-4-27,88.6,71.8,58.0,61.5,54.9,50.5,80,58,28,30.01,29.91,12,1,17,0.00
2014-4-28,84.4,71.8,59.3,68.1,62.8,54.8,89,74,53,30.00,29.88,14,1,16,0.00
2014-4-29,85.2,75.8,70.6,71.8,68.3,66.2,87,78,61,30.05,29.87,7,0,16,0.00
2014-4-30,80.8,72.6,67.6,70.2,67.2,63.0,89,83,68,30.08,29.94,11,1,25,0.57
2014-5-1,85.1,74.9,70.0,69.8,66.0,62.0,89,75,46,29.97,22.31,12,1,19,0.00
2014-5-2,72.2,66.0,60.0,63.8,55.2,46.8,82,69,43,29.94,29.86,11,1,16,0.00
2014-5-3,79.9,68.7,59.5,60.0,54.6,45.8,86,64,31,29.94,29.82,10,1,16,0.00
2014-5-4,86.9,70.9,54.8,60.5,50.0,39.9,81,52,20,29.99,29.86,17,2,22,0.00
2014-5-5,73.0,68.0,60.5,63.7,54.3,50.3,85,62,48,30.00,29.87,16,2,22,0.00
2014-5-6,93.8,77.6,62.7,64.1,59.2,52.9,87,58,26,30.00,22.32,10,1,16,0.00
2014-5-7,89.3,77.1,66.2,69.5,62.3,54.4,88,63,35,30.11,29.99,11,1,16,0.00
2014-5-8,95.8,78.9,66.9,66.3,60.2,52.5,76,56,24,31.07,22.50,13,2,18,0.00
2014-5-9,91.1,78.4,69.4,67.1,64.1,57.0,86,64,34,32.00,21.13,16,2,18,0.00
2014-5-10,88.1,78.2,72.2,69.6,65.7,60.3,85,68,43,31.52,22.48,16,2,28,0.00
2014-5-11,88.4,76.7,71.2,70.2,66.8,64.2,86,72,46,31.11,22.51,12,1,13,0.00
2014-5-12,90.2,79.9,72.3,72.3,68.7,66.4,86,70,48,30.76,21.61,6,0,8,0.00
2014-5-13,89.5,78.1,69.4,70.8,67.3,64.0,88,71,52,31.58,21.17,11,1,17,0.00
2014-5-14,88.5,76.6,65.3,69.9,64.9,60.8,89,69,44,31.20,22.56,11,0,14,0.00
2014-5-15,83.9,75.0,69.9,70.8,67.9,64.8,86,79,64,31.03,22.27,8,1,18,0.14
2014-5-16,80.5,72.8,60.8,68.7,60.6,46.7,89,68,35,30.93,22.28,16,2,18,1.88
2014-5-17,77.3,65.7,53.9,50.4,42.2,33.9,70,46,23,30.17,22.57,13,2,22,0.00
2014-5-18,76.0,64.6,54.0,56.3,51.4,47.6,86,64,38,30.19,30.13,7,1,14,0.00
2014-5-19,75.6,64.2,53.4,52.6,47.1,37.3,86,58,27,30.28,30.17,16,2,18,0.00
2014-5-20,80.3,66.1,50.3,56.5,49.0,44.3,88,58,31,30.30,22.55,8,0,12,0.00
2014-5-21,87.9,73.8,58.7,64.9,58.7,51.2,84,61,41,32.40,22.41,16,2,18,0.00
2014-5-22,94.0,79.4,69.3,64.8,62.2,57.7,80,59,30,29.97,22.17,16,2,18,0.01
2014-5-23,94.1,79.9,67.9,65.2,62.0,58.6,81,57,32,30.97,22.18,13,1,16,0.00
2014-5-24,83.6,73.7,62.8,64.8,54.5,45.2,78,54,27,31.97,22.45,11,2,18,0.00
2014-5-25,85.9,71.4,57.6,62.5,56.7,52.8,88,63,36,31.22,22.56,7,0,12,0.00
2014-5-26,86.4,74.2,60.9,67.0,61.2,55.8,88,66,42,30.23,21.63,10,1,16,0.00
2014-5-27,89.5,77.9,69.4,70.3,66.5,62.6,84,69,52,32.01,22.52,13,2,19,0.04
2014-5-28,93.3,80.0,69.3,72.0,68.0,64.2,89,70,39,31.03,20.41,11,1,17,0.48
2014-5-29,84.2,76.2,70.5,70.9,67.9,64.7,86,76,57,30.08,22.07,11,1,18,0.01
2014-5-30,82.1,73.8,68.7,69.2,66.3,64.3,87,78,63,31.74,21.62,7,0,11,0.05
2014-5-31,82.4,72.8,66.0,65.0,61.9,51.1,88,70,50,31.26,20.50,10,1,18,0.01
2014-6-1,76.9,69.7,58.2,56.2,52.7,44.2,76,56,35,32.23,22.68,13,2,20,0.00
2014-6-2,84.1,70.3,55.2,61.7,56.7,50.4,87,64,35,32.17,22.14,6,0,11,0.00
2014-6-3,89.2,74.6,58.2,65.8,60.3,53.6,88,64,36,31.02,22.48,10,2,18,0.00
2014-6-4,95.9,78.4,73.8,70.0,66.2,61.9,77,68,34,29.94,22.30,11,1,19,0.00
2014-6-5,93.0,80.9,72.7,72.5,69.3,66.0,84,69,49,29.84,16.59,16,3,20,0.11
2014-6-6,80.9,75.1,72.6,71.0,68.3,66.9,86,80,68,30.98,21.41,12,1,14,0.01
2014-6-7,85.4,75.9,67.9,68.2,63.7,57.0,87,68,41,30.69,22.45,12,1,16,0.00
2014-6-8,86.7,74.8,62.2,65.5,60.4,56.8,88,63,38,43.18,22.02,7,1,14,0.00
2014-6-9,84.3,77.3,69.6,75.5,70.5,62.5,87,80,71,30.95,22.38,8,1,14,0.16
2014-6-10,95.4,83.3,74.8,77.6,72.8,68.5,89,72,45,32.38,22.37,10,1,14,0.00
2014-6-11,93.3,83.0,75.9,76.1,72.6,68.4,86,72,49,29.98,29.89,8,1,12,0.00
2014-6-12,86.2,77.9,73.3,76.5,71.3,67.6,88,80,65,29.93,29.82,8,0,17,2.71
2014-6-13,88.8,78.4,71.7,75.6,69.6,65.7,88,75,50,29.88,29.81,12,1,16,0.18
2014-6-14,92.7,81.3,74.5,73.5,69.7,66.2,84,69,44,30.03,29.88,13,1,19,0.00
2014-6-15,84.0,77.8,71.7,73.6,69.3,67.4,88,76,59,30.15,30.02,11,1,19,0.00
2014-6-16,90.9,80.0,70.7,74.2,68.8,66.0,88,70,47,30.19,30.11,11,0,11,0.00
2014-6-17,94.1,80.9,70.1,76.4,69.0,65.4,88,69,42,30.18,30.09,8,1,12,0.00
2014-6-18,97.1,83.1,72.0,70.5,66.1,58.4,86,61,30,30.14,30.06,7,1,14,0.00
2014-6-19,96.8,83.7,73.5,73.2,70.0,65.8,85,66,41,30.13,29.99,11,1,16,0.00
2014-6-20,97.2,83.0,72.8,75.9,70.8,67.6,85,69,41,30.04,29.90,11,1,13,0.06
2014-6-21,91.5,79.3,71.3,75.8,70.8,66.5,89,76,55,29.98,29.78,11,1,17,0.42
2014-6-22,88.6,79.6,72.8,73.5,70.6,68.5,87,75,56,29.93,29.78,16,1,16,0.00
2014-6-23,87.3,78.6,68.9,71.5,68.9,64.5,87,73,57,30.10,29.93,12,2,18,0.00
2014-6-24,86.5,78.3,70.1,75.4,70.8,65.6,88,78,64,30.11,30.02,10,0,12,0.18
2014-6-25,93.9,82.4,73.9,74.9,71.5,66.4,89,72,41,30.05,29.92,12,1,14,0.55
2014-6-26,94.9,84.5,76.8,76.0,71.6,64.9,84,67,43,29.98,29.88,12,1,16,0.00
2014-6-27,92.6,78.7,74.2,77.6,71.5,68.3,88,79,54,30.06,29.95,13,0,16,0.02
2014-6-28,83.8,76.4,72.9,74.0,70.6,66.7,89,83,69,30.16,30.05,17,2,18,0.02
2014-6-29,85.7,76.3,67.2,70.4,65.4,61.9,84,70,51,30.17,30.10,8,1,14,0.00
2014-6-30,88.6,77.5,65.0,67.9,64.2,57.8,86,66,38,30.12,29.98,8,0,8,0.00
2014-7-1,93.0,80.9,68.0,72.9,68.3,57.3,88,68,32,30.01,29.92,7,0,11,0.00
2014-7-2,94.0,84.3,75.2,77.5,73.9,70.0,88,72,56,30.00,29.94,14,1,14,0.00
2014-7-3,80.7,76.4,73.4,75.6,71.9,68.5,89,86,78,30.01,29.47,25,4,35,3.60
2014-7-4,89.0,80.7,74.0,74.5,71.0,68.3,88,73,56,30.10,29.75,22,1,24,0.01
2014-7-5,84.4,75.6,66.1,69.2,61.7,55.7,86,64,44,30.24,30.09,8,1,17,0.03
2014-7-6,84.4,75.4,67.0,67.0,63.1,57.8,84,67,42,30.19,30.06,8,0,14,0.00
2014-7-7,91.6,78.8,68.1,74.6,69.0,63.4,89,73,49,30.08,29.98,7,1,12,0.00
2014-7-8,94.5,83.8,76.9,75.6,72.3,66.3,86,70,40,30.05,29.95,18,2,19,0.00
2014-7-9,95.9,84.4,79.1,76.8,72.9,67.6,84,70,41,30.05,29.96,12,1,18,0.00
2014-7-10,90.1,80.0,72.4,77.6,72.3,66.7,87,78,65,30.12,30.02,11,1,22,0.74
2014-7-11,81.1,75.8,71.5,73.2,70.5,68.1,89,84,75,30.19,30.06,4,0,5,0.20
2014-7-12,89.9,80.0,70.9,75.1,71.0,66.9,89,75,58,30.20,30.14,6,0,8,0.01
2014-7-13,90.3,81.0,71.8,76.1,71.8,67.5,89,75,59,30.15,30.03,6,0,12,0.00
2014-7-14,92.8,82.1,73.6,78.4,73.2,69.0,87,75,54,30.06,29.92,7,1,14,0.03
2014-7-15,91.5,79.9,72.8,79.3,72.9,68.1,88,80,56,29.94,29.80,17,1,19,0.47
2014-7-16,81.1,74.4,70.8,72.7,69.7,66.7,89,86,74,29.90,29.81,7,0,16,0.86
2014-7-17,86.1,77.0,68.6,71.7,67.8,65.2,89,74,56,30.07,29.89,12,1,13,0.00
2014-7-18,85.3,77.0,67.4,67.4,63.6,59.3,87,65,44,30.14,30.07,13,1,16,0.00
2014-7-19,85.9,76.6,67.2,73.3,67.3,60.2,82,73,61,30.13,30.04,7,0,13,0.00
2014-7-20,87.8,79.9,74.3,76.0,72.1,69.6,87,78,64,30.09,30.03,6,0,8,0.07
2014-7-21,80.5,75.0,72.1,75.4,70.7,68.0,90,86,79,30.14,30.04,7,0,13,1.89
2014-7-22,82.6,77.2,72.8,75.4,72.5,69.7,90,86,76,30.12,30.06,5,0,7,0.68
2014-7-23,90.9,81.0,72.8,77.3,72.6,68.8,89,76,59,30.09,29.93,6,0,11,0.01
2014-7-24,93.0,82.1,71.7,76.3,72.9,68.0,88,75,51,29.95,29.81,18,2,23,1.44
2014-7-25,80.0,75.1,71.2,72.9,70.5,67.9,90,86,75,30.04,29.91,7,0,11,0.01
2014-7-26,92.0,81.1,73.4,76.9,73.1,69.3,90,78,58,30.02,29.92,5,0,11,0.01
2014-7-27,94.8,85.0,78.0,76.3,73.8,68.2,89,71,44,29.98,29.82,12,1,17,0.00
2014-7-28,92.3,81.9,71.8,78.8,72.4,66.8,88,74,52,29.84,29.73,13,2,23,0.81
2014-7-29,88.7,76.5,67.0,70.3,66.4,62.0,88,72,44,29.97,29.79,8,0,13,0.09
2014-7-30,84.7,76.6,67.5,70.0,65.8,62.2,89,71,48,30.05,29.94,11,1,16,0.01
2014-7-31,85.6,78.3,69.9,70.9,67.8,64.1,86,71,57,30.10,30.04,16,1,18,0.00
2014-8-1,79.6,76.6,73.5,74.6,71.5,69.2,89,85,72,30.10,30.00,13,0,17,1.12
2014-8-2,75.7,74.3,72.5,72.6,70.8,69.1,90,89,86,30.08,30.01,2,0,5,0.84
2014-8-3,74.4,72.8,71.2,71.3,69.6,68.1,90,90,89,30.11,30.02,5,0,8,0.84
2014-8-4,78.1,75.1,72.9,74.6,71.6,69.8,90,89,86,30.08,30.00,2,0,5,0.21
2014-8-5,86.5,77.3,73.8,75.3,71.7,69.3,90,83,61,30.02,29.94,10,0,13,0.35
2014-8-6,93.7,80.9,71.5,76.0,70.8,67.8,89,73,48,29.98,29.89,11,1,13,0.01
2014-8-7,94.2,79.5,72.8,73.7,70.1,67.2,89,75,42,29.99,29.89,11,0,19,0.01
2014-8-8,85.5,78.2,71.8,72.0,69.7,65.8,88,76,54,30.07,29.98,13,1,14,0.00
2014-8-9,80.7,76.2,73.9,72.8,70.9,68.6,89,84,74,30.08,30.00,8,0,13,0.71
2014-8-10,81.0,76.5,72.8,73.7,71.0,69.4,90,83,72,30.05,29.99,8,1,14,1.71
2014-8-11,86.0,79.6,74.8,75.1,72.1,69.6,87,78,68,30.03,29.92,11,1,17,0.32
2014-8-12,90.2,81.2,72.7,77.8,74.1,68.9,90,80,58,29.92,29.80,14,1,14,0.00
2014-8-13,91.1,81.7,74.4,74.6,70.3,64.6,84,70,45,29.94,29.80,7,1,13,0.00
2014-8-14,88.4,76.3,65.7,65.6,62.1,57.1,82,64,37,30.02,29.93,12,0,16,0.00
2014-8-15,89.8,76.8,65.2,68.3,63.2,60.8,88,66,39,30.04,29.96,4,0,7,0.00
2014-8-16,88.1,76.9,67.2,74.2,68.9,62.2,88,77,60,30.04,29.97,5,0,7,0.03
2014-8-17,94.3,83.0,74.5,74.5,70.7,66.0,88,69,40,30.01,29.92,8,1,14,0.00
2014-8-18,94.3,83.1,73.7,76.0,73.0,67.8,87,73,50,29.95,29.78,11,1,19,0.03
2014-8-19,93.7,80.4,73.6,75.0,71.1,68.5,88,75,46,29.86,29.78,11,1,16,0.80
2014-8-20,89.4,78.6,73.3,77.7,72.8,69.9,90,83,63,30.02,29.85,6,0,7,0.04
2014-8-21,94.6,82.5,74.1,80.0,72.5,69.3,90,74,50,30.04,29.97,13,1,16,0.01
2014-8-22,96.7,82.3,72.0,78.0,72.2,67.4,87,74,45,30.02,29.91,12,1,28,0.69
2014-8-23,86.8,77.6,72.3,77.8,72.8,68.7,90,85,66,29.95,29.86,6,1,13,1.59
2014-8-24,83.7,75.3,68.7,70.5,65.5,59.2,89,73,52,30.03,29.88,16,3,18,0.00
2014-8-25,81.0,72.6,64.3,71.4,64.2,58.7,84,75,66,30.05,29.99,13,3,22,0.01
2014-8-26,85.6,74.5,64.5,67.9,63.2,60.2,87,69,46,30.06,30.00,10,2,16,0.01
2014-8-27,88.3,77.2,66.3,68.6,65.4,61.6,88,68,49,30.02,29.91,11,2,17,0.00
2014-8-28,93.5,77.9,63.2,68.4,63.1,58.5,87,64,35,30.02,29.93,7,1,14,0.00
2014-8-29,91.8,80.4,70.6,72.3,68.7,65.5,87,69,45,30.14,30.01,7,0,13,0.00
2014-8-30,89.4,79.8,72.1,76.2,71.0,66.9,89,75,58,30.20,30.11,10,0,13,0.00
2014-8-31,91.0,80.8,71.1,77.0,72.2,66.7,89,76,59,30.18,28.21,7,0,13,0.00
2014-9-1,92.7,82.4,74.3,77.8,73.7,70.1,89,76,56,30.12,29.11,6,0,11,0.00
2014-9-2,93.9,82.8,74.9,77.8,73.8,70.7,88,75,55,30.09,29.96,12,0,13,0.00
2014-9-3,93.5,83.0,76.7,77.2,73.4,71.8,86,74,54,30.11,30.00,8,0,13,0.00
2014-9-4,92.9,82.1,73.9,75.5,72.4,69.8,89,74,49,30.17,30.10,7,0,8,0.00
2014-9-5,92.7,81.2,74.6,75.1,72.2,69.4,89,75,51,30.18,30.08,6,0,11,0.01
2014-9-6,85.8,77.3,72.9,75.8,71.6,68.8,89,83,68,30.10,29.95,5,0,13,0.19
2014-9-7,86.7,76.7,73.0,77.8,71.9,69.2,89,85,70,30.06,29.96,8,0,17,4.17
2014-9-8,77.9,74.8,72.0,74.7,71.7,68.9,93,90,89,30.09,29.99,6,0,14,2.42
2014-9-9,77.0,74.0,71.4,71.6,69.2,67.9,90,85,77,30.06,30.00,11,1,12,0.00
2014-9-10,85.1,78.2,70.7,72.0,69.4,66.3,88,75,60,30.10,30.01,7,0,8,0.00
2014-9-11,89.0,77.6,68.6,75.7,70.0,64.7,89,78,62,30.06,29.94,8,0,8,0.01
2014-9-12,90.7,76.8,72.6,76.7,71.8,69.2,89,85,59,30.08,29.96,10,0,12,1.85
2014-9-13,88.3,79.1,72.3,77.9,73.0,69.1,93,82,65,30.11,30.03,1,0,1,1.59
2014-9-14,75.4,73.0,66.7,70.5,66.0,62.9,89,79,72,30.20,30.10,11,2,11,2.43
2014-9-15,77.7,71.0,68.3,65.4,64.2,62.6,85,79,63,30.20,30.15,6,1,8,1.09
2014-9-16,84.2,78.9,72.8,72.6,70.4,68.1,86,76,66,30.02,29.93,7,0,7,0.00
2014-9-17,84.3,73.3,65.4,71.7,66.9,61.8,90,81,64,29.97,29.84,12,1,19,0.16
2014-9-18,82.5,73.5,65.6,69.1,63.9,60.6,88,73,57,30.03,29.88,12,1,17,0.00
2014-9-19,80.7,72.5,64.9,67.5,63.1,58.9,82,73,62,30.16,30.02,17,3,23,0.00
2014-9-20,75.9,70.2,65.4,68.1,63.6,59.3,88,80,72,30.15,29.84,12,2,18,0.05
2014-9-21,86.3,75.2,69.4,68.5,65.0,59.7,89,73,42,29.89,29.75,16,2,17,0.00
2014-9-22,82.9,75.4,67.9,68.5,62.7,56.4,85,66,42,30.09,29.87,14,1,18,0.05
2014-9-23,67.9,63.7,59.1,63.1,59.1,55.2,87,85,81,30.20,30.08,13,2,22,0.17
2014-9-24,72.2,65.2,58.6,67.4,61.4,54.7,90,88,84,30.19,30.11,13,2,18,0.46
2014-9-25,76.2,70.7,67.0,71.7,66.9,63.6,90,88,82,30.16,30.09,7,1,13,0.08
2014-9-26,74.2,68.5,64.7,67.3,63.5,60.7,89,84,77,30.14,30.08,12,2,17,0.02
2014-9-27,79.3,71.1,63.0,67.6,63.2,58.6,86,77,65,30.15,30.09,11,2,17,0.00
2014-9-28,81.4,71.3,64.0,68.8,64.1,59.6,87,79,63,30.14,30.03,12,1,16,0.00
2014-9-29,77.1,69.6,64.4,66.3,63.7,60.1,88,82,66,30.04,29.92,7,0,11,0.27
2014-9-30,81.1,70.8,62.9,67.6,63.5,59.6,90,79,56,29.92,29.80,14,1,16,0.01
2014-10-1,83.1,70.2,61.0,67.8,62.3,57.4,90,77,50,30.02,29.87,7,0,14,0.01
2014-10-2,83.0,70.8,61.5,69.6,64.1,57.6,90,80,58,30.10,30.01,7,0,8,0.00
2014-10-3,85.9,75.3,66.6,70.9,66.6,62.6,89,76,50,30.07,29.80,8,0,12,0.03
2014-10-4,81.0,73.0,58.6,70.2,57.7,36.9,85,61,37,29.87,29.65,12,0,16,0.04
2014-10-5,69.6,56.9,45.0,45.7,39.5,33.2,82,56,28,30.05,29.87,4,0,11,0.00
2014-10-6,76.6,59.6,45.7,52.1,46.8,41.4,88,66,31,30.14,30.04,7,0,8,0.00
2014-10-7,81.4,67.9,57.9,65.7,59.9,51.8,88,76,53,30.15,30.03,4,0,10,0.00
2014-10-8,89.3,75.8,65.6,69.9,65.8,61.3,89,73,44,30.07,29.94,7,0,16,0.01
2014-10-9,79.7,69.3,60.2,66.9,55.5,48.3,84,64,34,30.15,30.01,8,0,13,0.00
2014-10-10,82.9,69.3,57.7,65.7,60.0,53.8,90,74,49,30.13,30.03,4,0,8,0.00
2014-10-11,88.9,75.6,65.9,72.5,67.0,62.2,90,76,47,30.05,29.92,12,0,14,0.21
2014-10-12,71.9,68.2,62.9,67.4,63.2,59.6,90,84,78,30.19,30.01,11,1,12,0.01
2014-10-13,82.8,72.4,62.7,72.3,66.1,59.1,90,81,66,30.23,30.14,13,0,13,0.00
2014-10-14,84.0,77.0,73.7,73.1,70.8,69.1,88,81,69,30.14,29.95,0,0,0,0.23
2014-10-15,75.6,68.8,59.2,71.8,65.0,55.3,89,88,86,29.95,29.83,0,0,0,1.08
2014-10-16,75.5,62.4,54.4,58.3,53.5,49.8,90,75,43,29.86,29.78,0,0,0,0.01
2014-10-17,78.3,63.2,52.9,57.1,53.0,49.1,89,72,42,29.94,29.82,13,0,13,0.00
2014-10-18,82.9,69.4,59.8,60.7,56.0,47.4,87,64,41,29.86,29.71,11,0,11,0.00
2014-10-19,69.0,59.7,48.6,48.4,45.3,41.4,80,61,38,30.14,29.86,7,0,11,0.00
2014-10-20,75.5,58.6,43.7,57.8,49.6,39.8,88,74,49,30.16,29.97,6,0,7,0.00
2014-10-21,79.8,64.9,54.2,60.0,53.9,49.8,89,71,36,29.97,29.81,13,0,13,0.00
2014-10-22,69.3,59.0,50.5,55.7,45.4,42.1,84,62,41,30.00,29.85,10,0,10,0.00
2014-10-23,70.5,57.0,47.2,46.7,43.8,40.8,79,64,36,30.01,29.89,16,0,16,0.00
2014-10-24,72.7,57.2,47.4,51.9,47.0,43.0,85,71,43,30.04,29.93,7,0,7,0.00
2014-10-25,77.0,58.0,45.7,53.2,46.8,40.2,89,71,27,30.00,29.88,8,0,8,0.00
2014-10-26,83.1,63.8,50.1,55.5,47.9,44.3,84,60,27,29.96,29.82,13,0,16,0.00
2014-10-27,82.0,61.9,48.4,54.3,47.3,34.2,86,64,20,30.12,29.96,7,0,7,0.00
2014-10-28,85.0,66.0,52.2,69.1,56.2,48.4,93,74,33,30.16,30.07,12,0,12,0.01
2014-10-29,81.9,70.9,62.3,66.4,61.6,57.8,90,74,45,30.09,29.92,12,0,14,0.01
2014-10-30,70.3,62.6,55.6,63.1,54.6,50.1,88,76,53,29.99,29.91,16,0,17,0.15
2014-10-31,68.4,56.6,48.9,50.2,45.9,41.0,85,69,41,29.93,29.75,18,1,22,0.00
2014-11-1,52.2,49.2,45.1,47.5,44.0,39.1,87,83,70,29.86,29.55,25,2,28,0.72
2014-11-2,54.2,46.3,38.9,39.5,32.3,28.2,74,60,38,30.29,29.86,25,3,25,0.00
2014-11-3,64.9,46.0,31.7,36.0,29.4,19.9,82,58,18,30.43,30.29,11,0,11,0.00
2014-11-4,68.0,51.0,37.8,42.8,37.6,30.3,87,65,25,30.39,30.26,13,0,14,0.00
2014-11-5,66.1,60.7,47.9,62.8,57.2,42.6,90,88,82,30.31,30.25,6,3,6,0.00
2014-11-6,75.5,69.1,63.0,64.7,61.6,45.6,89,78,53,30.30,29.75,34,4,34,0.00
2014-11-7,65.0,54.6,42.8,45.3,38.6,35.6,82,56,36,30.04,29.80,11,1,20,0.00
2014-11-8,63.4,49.4,36.7,47.7,41.3,32.3,86,75,45,30.08,29.96,6,0,6,0.00
2014-11-9,62.4,54.0,46.0,50.0,45.8,41.4,85,74,54,30.01,29.91,12,0,12,0.01
2014-11-10,63.6,54.4,44.3,53.2,46.1,39.7,86,74,56,30.09,29.95,12,1,12,0.00
2014-11-11,73.2,64.5,58.9,65.2,59.3,53.1,88,83,76,29.95,29.83,17,2,17,0.01
2014-11-12,77.6,65.3,57.3,62.2,57.4,52.9,89,77,46,29.99,29.87,13,0,13,0.00
2014-11-13,68.2,61.2,50.0,61.3,56.1,44.4,89,83,78,30.03,29.91,8,1,14,0.00
2014-11-14,50.0,44.6,32.8,44.4,36.5,25.1,81,73,62,30.28,29.97,13,2,18,0.03
2014-11-15,50.0,37.7,29.6,26.1,22.4,18.3,73,56,29,30.42,30.27,17,1,17,0.00
2014-11-16,59.5,47.6,34.4,50.4,40.1,26.0,89,76,62,30.35,30.07,8,0,8,0.32
2014-11-17,76.0,62.7,48.7,69.6,58.0,45.6,93,85,71,30.07,29.66,34,2,34,0.04
2014-11-18,62.0,42.7,27.3,52.9,26.3,14.5,77,54,30,30.33,29.78,20,2,29,0.00
2014-11-19,46.8,32.6,22.1,24.5,17.9,7.7,79,59,22,30.44,30.27,13,0,14,0.00
2014-11-20,62.3,45.4,29.5,41.3,31.0,23.6,85,61,28,30.27,30.06,20,1,20,0.00
2014-11-21,56.7,46.2,35.7,37.1,24.6,12.1,80,46,19,30.53,30.17,19,1,19,0.00
2014-11-22,57.7,43.7,32.5,43.5,33.2,18.1,85,67,48,30.56,30.30,11,0,12,0.00
2014-11-23,66.9,57.3,42.9,63.6,54.1,39.0,90,89,86,30.30,29.83,17,0,17,1.59
2014-11-24,73.5,68.9,65.5,69.0,65.3,62.0,93,88,84,29.96,29.78,20,1,20,0.40
2014-11-25,66.8,64.4,62.0,62.7,60.7,58.7,90,88,84,30.08,29.92,17,0,17,0.51
2014-11-26,68.7,54.2,40.7,66.6,50.7,36.5,93,88,81,30.11,29.70,16,2,26,0.76
2014-11-27,56.8,44.8,36.8,42.2,36.8,31.6,90,75,49,30.24,29.98,20,2,23,0.00
2014-11-28,48.1,38.1,30.9,31.9,26.3,21.8,85,65,36,30.35,30.23,19,1,19,0.00
2014-11-29,55.2,40.1,29.5,37.3,30.3,24.8,88,71,36,30.38,30.28,7,0,7,0.00
2014-11-30,69.9,53.1,39.3,50.7,42.6,34.9,93,71,33,30.39,30.26,16,1,17,0.01
2014-12-1,74.2,57.4,44.2,54.7,47.8,39.9,89,73,40,30.40,30.28,16,1,16,0.00
2014-12-2,60.5,53.5,47.9,52.5,48.8,44.2,93,84,74,30.40,30.30,12,1,12,0.00
2014-12-3,70.6,57.1,51.9,60.6,52.2,48.8,90,84,68,30.30,30.18,6,0,6,0.01
2014-12-4,59.8,54.0,46.0,51.1,47.9,40.5,90,80,65,30.37,30.23,11,0,11,0.01
2014-12-5,64.7,51.9,42.0,52.7,45.3,37.8,86,79,64,30.42,30.29,12,1,12,0.00
2014-12-6,66.9,59.4,52.3,61.1,55.5,47.9,90,87,81,30.29,30.01,8,0,8,0.20
2014-12-7,60.7,49.1,42.2,57.4,41.4,31.6,89,75,63,30.33,30.01,26,5,29,0.01
2014-12-8,58.2,47.8,40.0,46.2,39.3,31.6,85,73,62,30.29,30.04,23,3,23,0.01
2014-12-9,45.3,43.4,41.0,41.5,39.5,38.0,89,86,80,30.05,29.85,19,2,19,0.05
2014-12-10,55.7,45.8,37.9,40.6,35.4,27.8,85,68,45,30.00,29.90,17,1,17,0.00
2014-12-11,51.4,38.2,28.5,29.7,26.2,23.3,85,64,35,30.12,29.99,14,1,14,0.00
2014-12-12,58.4,41.3,27.8,28.0,23.3,17.1,81,54,20,30.22,30.08,11,0,16,0.00
2014-12-13,60.7,43.8,35.9,29.6,25.4,17.6,76,53,19,30.14,30.01,6,0,12,0.00
2014-12-14,57.8,41.5,32.5,38.8,31.6,26.4,83,69,40,30.05,29.98,10,0,10,0.00
2014-12-15,61.2,43.4,32.6,42.2,35.4,29.1,89,75,41,30.12,30.03,5,0,5,0.00
2014-12-16,69.0,53.1,39.1,53.6,44.3,35.1,90,74,41,30.08,29.91,22,1,22,0.02
2014-12-17,62.5,51.6,42.2,50.5,42.0,36.8,86,71,44,30.12,29.97,11,0,13,0.01
2014-12-18,56.0,44.2,37.1,37.7,35.0,30.4,88,72,42,30.17,30.06,12,0,12,0.00
2014-12-19,58.9,43.9,33.9,36.7,31.9,25.8,87,67,29,30.19,30.07,10,0,11,0.01
2014-12-20,45.4,42.9,38.8,41.4,37.9,33.7,87,83,68,30.25,30.18,7,0,8,0.08
2014-12-21,49.4,42.9,37.2,41.1,36.5,33.5,87,78,65,30.28,30.13,14,1,14,0.03
2014-12-22,47.0,45.3,44.2,44.2,42.2,40.8,90,89,87,30.13,29.95,13,1,13,0.27
2014-12-23,56.0,49.9,44.0,54.0,47.3,41.3,93,91,90,30.05,29.95,8,0,8,0.29
2014-12-24,66.2,64.2,55.7,64.0,62.1,52.7,93,93,90,29.95,29.82,14,0,14,0.17
2014-12-25,66.0,58.5,41.8,63.9,52.5,37.6,93,82,54,30.25,29.84,16,0,16,0.02
2014-12-26,62.2,45.7,35.8,45.4,38.1,32.6,90,76,49,30.35,30.24,6,0,6,0.01
2014-12-27,62.6,46.7,35.4,45.9,39.3,32.1,90,77,52,30.36,30.19,6,0,6,0.00
2014-12-28,74.5,60.3,46.7,61.2,54.0,42.7,90,81,61,30.19,29.99,19,1,20,0.00
2014-12-29,61.4,56.9,49.1,57.5,53.3,45.9,89,88,85,30.12,30.00,12,0,12,0.20
2014-12-30,49.0,43.4,39.3,45.9,39.1,31.6,90,85,74,30.40,30.10,19,3,20,0.00
2014-12-31,50.5,38.4,30.2,31.9,28.2,23.3,86,69,38,30.47,30.34,13,0,14,0.01
2015-1-1,54.8,39.1,28.1,35.6,29.9,24.5,88,72,38,30.37,30.25,6,0,7,0.00
2015-1-2,60.9,51.5,40.0,48.1,43.6,35.6,87,75,51,30.37,30.25,7,0,8,0.08